Weather History for KS32 - April, 2013

Change the Weather History Date:

Saturday, April 27, 2013

  Actual Average (KJMS) Record (KJMS)
Temperature  
Mean Temperature 54 °F 48 °F  
Max Temperature 68 °F 61 °F 94 °F (1952)
Min Temperature 39 °F 35 °F 13 °F (1909)
Degree Days  
Heating Degree Days 12 17  
Month to date heating degree days 628  
Since 1 July heating degree days 8548  
Cooling Degree Days 0 0  
Month to date cooling degree days 0  
Year to date cooling degree days 0  
Growing Degree Days 4 (Base 50)    
Moisture  
Dew Point 44 °F    
Average Humidity 74    
Maximum Humidity 100    
Minimum Humidity 46    
Precipitation  
Precipitation 0.00 in 0.05 in 1.16 in (1942)
Month to date precipitation 1.01  
Year to date precipitation 2.70  
Sea Level Pressure  
Sea Level Pressure 29.85 in    
Wind  
Wind Speed 14 mph (SSW)    
Max Wind Speed 20 mph    
Max Gust Speed 26 mph    
Visibility 10 miles    
Events      
T = Trace of Precipitation, MM = Missing Value Source: NWS Daily Summary

Daily Weather History Graph

Daily Weather History Graph

Search for Another Location

Airport or City:

Trip Planner

Search our weather history database for the weather conditions in past years. The results will help you decide how hot, cold, wet, or windy it might be!

Date:

Astronomy

Apr. 27, 2013 Rise Set
Actual Time 6:21 AM CDT 8:38 PM CDT
Civil Twilight 5:48 AM CDT 9:12 PM CDT
Nautical Twilight 5:06 AM CDT 9:55 PM CDT
Astronomical Twilight 4:18 AM CDT 10:42 PM CDT
Moon 11:17 PM CDT (4/27) 7:35 AM CDT (4/27)
Length of Visible Light 15h 24m
Length of Day
14h 17m
Waning Gibbous, 95% of the Moon is Illuminated
Apr 27
Waning Gibbous
May 2
Last Quarter
May 9
New
May 17
First Quarter
May 24
Full

Hourly Weather History & Observations

Time (CDT) Temp. Windchill Dew Point Humidity Pressure Visibility Wind Dir Wind Speed Gust Speed Precip Events Conditions
12:15 AM 41.0 °F 34.7 °F 39.2 °F 93% 30.02 in 10.0 mi South 10.4 mph - N/A   Clear
12:35 AM 41.0 °F 33.9 °F 39.2 °F 93% 30.02 in 10.0 mi South 12.7 mph - N/A   Clear
12:55 AM 39.2 °F 31.6 °F 39.2 °F 100% 30.02 in 10.0 mi SSW 12.7 mph - N/A   Clear
1:15 AM 44.6 °F 37.8 °F 39.2 °F 81% 30.01 in 10.0 mi SSW 15.0 mph 20.7 mph N/A   Clear
1:35 AM 44.6 °F 37.4 °F 37.4 °F 76% 30.01 in 10.0 mi SSW 16.1 mph - N/A   Clear
1:55 AM 44.6 °F 37.2 °F 37.4 °F 76% 30.01 in 10.0 mi SSW 17.3 mph - N/A   Clear
2:15 AM 46.4 °F 39.2 °F 37.4 °F 71% 30.00 in 10.0 mi SSW 18.4 mph - N/A   Clear
2:35 AM 44.6 °F 37.2 °F 37.4 °F 76% 30.00 in 10.0 mi SSW 17.3 mph 24.2 mph N/A   Clear
2:55 AM 44.6 °F 36.9 °F 37.4 °F 76% 29.99 in 10.0 mi SSW 18.4 mph - N/A   Clear
3:15 AM 44.6 °F 37.2 °F 37.4 °F 76% 29.98 in 10.0 mi SSW 17.3 mph - N/A   Clear
3:35 AM 42.8 °F 34.5 °F 37.4 °F 81% 29.98 in 10.0 mi SSW 18.4 mph - N/A   Clear
3:55 AM 41.0 °F 32.5 °F 37.4 °F 87% 29.97 in 10.0 mi SSW 17.3 mph - N/A   Clear
4:15 AM 41.0 °F 32.8 °F 37.4 °F 87% 29.97 in 10.0 mi SSW 16.1 mph - N/A   Clear
4:35 AM 39.2 °F 30.5 °F 37.4 °F 93% 29.96 in 10.0 mi South 16.1 mph - N/A   Clear
4:55 AM 39.2 °F 30.8 °F 37.4 °F 93% 29.95 in 10.0 mi South 15.0 mph - N/A   Clear
5:15 AM 39.2 °F 30.5 °F 37.4 °F 93% 29.94 in 10.0 mi South 16.1 mph - N/A   Clear
6:35 AM 39.2 °F 30.5 °F 35.6 °F 87% 29.91 in 10.0 mi SSW 16.1 mph 20.7 mph N/A   Clear
6:55 AM 41.0 °F 32.5 °F 35.6 °F 81% 29.91 in 10.0 mi SSW 17.3 mph 21.9 mph N/A   Clear
7:15 AM 41.0 °F 32.8 °F 35.6 °F 81% 29.91 in 10.0 mi SSW 16.1 mph - N/A   Clear
7:35 AM 42.8 °F 35.1 °F 37.4 °F 81% 29.91 in 10.0 mi SSW 16.1 mph 20.7 mph N/A   Clear
7:55 AM 44.6 °F 37.2 °F 37.4 °F 76% 29.90 in 10.0 mi SSW 17.3 mph 21.9 mph N/A   Clear
8:15 AM 44.6 °F 37.8 °F 37.4 °F 76% 29.90 in 10.0 mi SSW 15.0 mph - N/A   Clear
8:35 AM 44.6 °F 38.1 °F 37.4 °F 76% 29.90 in 10.0 mi SSW 13.8 mph - N/A   Clear
8:55 AM 46.4 °F 40.1 °F 39.2 °F 76% 29.89 in 10.0 mi SSW 15.0 mph - N/A   Clear
9:15 AM 46.4 °F 39.8 °F 41.0 °F 81% 29.89 in 10.0 mi SSW 16.1 mph - N/A   Clear
9:35 AM 48.2 °F - 41.0 °F 76% 29.88 in 10.0 mi SSW 17.3 mph 23.0 mph N/A   Clear
9:55 AM 48.2 °F - 41.0 °F 76% 29.88 in 10.0 mi SSW 17.3 mph 26.5 mph N/A   Clear
10:15 AM 50.0 °F - 41.0 °F 71% 29.87 in 10.0 mi SSW 17.3 mph 23.0 mph N/A   Clear
10:35 AM 50.0 °F - 44.6 °F 82% 29.86 in 10.0 mi SSW 16.1 mph - N/A   Clear
10:55 AM 53.6 °F - 44.6 °F 72% 29.85 in 10.0 mi SSW 17.3 mph - N/A   Clear
11:15 AM 55.4 °F - 46.4 °F 72% 29.85 in 10.0 mi SSW 18.4 mph 24.2 mph N/A   Clear
11:35 AM 55.4 °F - 46.4 °F 72% 29.84 in 10.0 mi SSW 17.3 mph - N/A   Clear
11:55 AM 57.2 °F - 48.2 °F 72% 29.84 in 10.0 mi SSW 17.3 mph 25.3 mph N/A   Clear
12:15 PM 59.0 °F - 50.0 °F 72% 29.85 in 10.0 mi SSW 16.1 mph - N/A   Clear
12:35 PM 59.0 °F - 51.8 °F 77% 29.84 in 10.0 mi SW 16.1 mph - N/A   Clear
12:55 PM 62.6 °F - 53.6 °F 72% 29.83 in 10.0 mi SW 16.1 mph - N/A   Clear
1:15 PM 62.6 °F - 51.8 °F 68% 29.83 in 10.0 mi SW 17.3 mph - N/A   Clear
1:35 PM 64.4 °F - 50.0 °F 59% 29.82 in 10.0 mi WSW 19.6 mph - N/A   Clear
1:55 PM 66.2 °F - 51.8 °F 60% 29.82 in 10.0 mi WSW 18.4 mph 23.0 mph N/A   Clear
2:15 PM 66.2 °F - 50.0 °F 56% 29.82 in 10.0 mi WSW 18.4 mph - N/A   Clear
2:35 PM 66.2 °F - 51.8 °F 60% 29.81 in 10.0 mi West 13.8 mph - N/A   Clear
2:55 PM 66.2 °F - 50.0 °F 56% 29.81 in 10.0 mi West 12.7 mph - N/A   Clear
3:15 PM 66.2 °F - 51.8 °F 60% 29.80 in 10.0 mi West 11.5 mph - N/A   Clear
3:35 PM 66.2 °F - 46.4 °F 49% 29.80 in 10.0 mi West 15.0 mph - N/A   Clear
3:55 PM 68.0 °F - 46.4 °F 46% 29.80 in 10.0 mi WSW 8.1 mph - N/A   Clear
4:15 PM 68.0 °F - 46.4 °F 46% 29.79 in 10.0 mi WSW 9.2 mph - N/A   Clear
4:35 PM 68.0 °F - 46.4 °F 46% 29.79 in 10.0 mi SW 11.5 mph - N/A   Clear
4:55 PM 68.0 °F - 50.0 °F 52% 29.78 in 10.0 mi SW 9.2 mph - N/A   Clear
5:15 PM 68.0 °F - 50.0 °F 52% 29.77 in 10.0 mi SW 8.1 mph - N/A   Clear
5:35 PM 68.0 °F - 50.0 °F 52% 29.77 in 10.0 mi WSW 9.2 mph - N/A   Clear
5:55 PM 68.0 °F - 50.0 °F 52% 29.76 in 10.0 mi WSW 9.2 mph - N/A   Clear
6:15 PM 68.0 °F - 50.0 °F 52% 29.77 in 10.0 mi West 10.4 mph - N/A   Clear
6:35 PM 66.2 °F - 50.0 °F 56% 29.76 in 10.0 mi West 9.2 mph 16.1 mph N/A   Clear
6:55 PM 64.4 °F - 51.8 °F 64% 29.76 in 10.0 mi West 8.1 mph - N/A   Clear
7:15 PM 62.6 °F - 55.4 °F 77% 29.76 in 10.0 mi West 5.8 mph - N/A   Clear
7:35 PM 62.6 °F - 53.6 °F 72% 29.75 in 10.0 mi West 4.6 mph - N/A   Clear
7:55 PM 62.6 °F - 51.8 °F 68% 29.74 in 10.0 mi Calm Calm - N/A   Clear
8:15 PM 57.2 °F - 50.0 °F 77% 29.73 in 10.0 mi SSE 4.6 mph - N/A   Clear
8:35 PM 53.6 °F - 50.0 °F 88% 29.73 in 10.0 mi South 6.9 mph - N/A   Clear
8:55 PM 51.8 °F - 48.2 °F 88% 29.72 in 10.0 mi SSE 6.9 mph - N/A   Clear
9:15 PM 50.0 °F - 48.2 °F 94% 29.72 in 10.0 mi South 6.9 mph - N/A   Scattered Clouds
9:35 PM 50.0 °F - 46.4 °F 87% 29.72 in 10.0 mi SSE 9.2 mph - N/A   Mostly Cloudy
9:55 PM 50.0 °F - 48.2 °F 94% 29.72 in 10.0 mi SSE 10.4 mph - N/A   Scattered Clouds
10:15 PM 50.0 °F - 46.4 °F 87% 29.72 in 10.0 mi SSE 10.4 mph - N/A   Partly Cloudy
10:35 PM 50.0 °F - 44.6 °F 82% 29.71 in 10.0 mi SSE 9.2 mph - N/A   Clear
10:55 PM 50.0 °F - 44.6 °F 82% 29.71 in 10.0 mi SSE 8.1 mph - N/A   Clear
11:15 PM 48.2 °F - 44.6 °F 87% 29.70 in 10.0 mi South 8.1 mph - N/A   Clear
11:35 PM 48.2 °F - 42.8 °F 82% 29.70 in 10.0 mi South 6.9 mph - N/A   Clear
11:55 PM 46.4 °F 41.5 °F 44.6 °F 93% 29.69 in 10.0 mi South 10.4 mph - N/A   Clear